| time (UTC) | temp C | wind direction | speed KPH | gust KPH | rain 1hr cm | rain 24hr cm | rain mn cm | humidity % | barometer mb |
| 20260505091129 | 9 | 247 | 0.0 | 0.0 | 0.00 | 0.00 | 0.00 | 74 | 1021.3 |
| 20260505090129 | 9 | 204 | 0.0 | 3.2 | 0.00 | 0.00 | 0.00 | 75 | 1021.4 |
| 20260505084227 | 9 | 247 | 0.0 | 0.0 | 0.00 | 0.00 | 0.00 | 75 | 1021.4 |
| 20260505082243 | 10 | 193 | 1.6 | 6.4 | 0.00 | 0.00 | 0.00 | 74 | 1021.4 |
| 20260505075328 | 10 | 193 | 1.6 | 6.4 | 0.00 | 0.00 | 0.00 | 73 | 1021.6 |
| 20260505074427 | 10 | 227 | 0.0 | 1.6 | 0.00 | 0.00 | 0.00 | 73 | 1021.6 |
| 20260505073427 | 10 | 183 | 1.6 | 8.0 | 0.00 | 0.00 | 0.00 | 72 | 1021.6 |
| 20260505072427 | 10 | 227 | 0.0 | 1.6 | 0.00 | 0.00 | 0.00 | 72 | 1021.6 |
| 20260505071429 | 10 | 193 | 0.0 | 6.4 | 0.00 | 0.00 | 0.00 | 71 | 1021.6 |
| 20260505070445 | 10 | 196 | 1.6 | 12.9 | 0.00 | 0.00 | 0.00 | 71 | 1021.5 |
| 20260505065527 | 10 | 211 | 0.0 | 4.8 | 0.00 | 0.00 | 0.00 | 72 | 1021.4 |
| 20260505064527 | 10 | 219 | 1.6 | 8.0 | 0.00 | 0.00 | 0.00 | 71 | 1021.4 |
| 20260505061526 | 10 | 187 | 0.0 | 3.2 | 0.00 | 0.00 | 0.00 | 69 | 1021.5 |
| 20260505060530 | 10 | 181 | 0.0 | 3.2 | 0.00 | 0.00 | 0.00 | 70 | 1021.4 |
| 20260505055528 | 10 | 185 | 1.6 | 6.4 | 0.00 | 0.00 | 0.00 | 69 | 1021.5 |
| 20260505053528 | 10 | 194 | 4.8 | 8.0 | 0.00 | 0.00 | 0.00 | 68 | 1021.5 |
| 20260505052526 | 10 | 190 | 1.6 | 6.4 | 0.00 | 0.00 | 0.00 | 68 | 1021.4 |
| 20260505040928 | 10 | 190 | 1.6 | 6.4 | 0.00 | 0.00 | 0.00 | 65 | 1021.9 |
| 20260505035941 | 10 | 179 | 1.6 | 8.0 | 0.00 | 0.00 | 0.00 | 64 | 1022.1 |
| 20260505033123 | 10 | 200 | 4.8 | 16.1 | 0.00 | 0.00 | 0.00 | 63 | 1022.1 |
| 20260505032124 | 10 | 198 | 1.6 | 4.8 | 0.00 | 0.00 | 0.00 | 62 | 1022.0 |
| 20260505031125 | 10 | 191 | 4.8 | 8.0 | 0.00 | 0.00 | 0.00 | 61 | 1022.1 |
| 20260505025224 | 10 | 187 | 6.4 | 11.3 | 0.00 | 0.00 | 0.00 | 61 | 1022.0 |
| 20260505024225 | 10 | 192 | 4.8 | 8.0 | 0.00 | 0.00 | 0.00 | 61 | 1022.1 |
| 20260505023323 | 10 | 195 | 6.4 | 14.5 | 0.00 | 0.00 | 0.00 | 59 | 1022.1 |
| 20260505022342 | 10 | 199 | 6.4 | 19.3 | 0.00 | 0.00 | 0.00 | 59 | 1022.1 |
| 20260505021424 | 10 | 190 | 6.4 | 8.0 | 0.00 | 0.00 | 0.00 | 59 | 1022.1 |
| 20260505020522 | 10 | 186 | 4.8 | 12.9 | 0.00 | 0.00 | 0.00 | 58 | 1022.1 |
| 20260505015525 | 10 | 189 | 6.4 | 14.5 | 0.00 | 0.00 | 0.00 | 59 | 1022.1 |
| 20260505014524 | 10 | 191 | 1.6 | 6.4 | 0.00 | 0.00 | 0.00 | 59 | 1021.9 |
| 20260505012523 | 10 | 192 | 4.8 | 9.7 | 0.00 | 0.00 | 0.00 | 58 | 1021.7 |
| 20260505011523 | 10 | 188 | 1.6 | 9.7 | 0.00 | 0.00 | 0.00 | 57 | 1021.6 |
| 20260505010622 | 10 | 192 | 4.8 | 9.7 | 0.00 | 0.00 | 0.00 | 56 | 1021.3 |
| 20260505005624 | 10 | 182 | 6.4 | 12.9 | 0.00 | 0.00 | 0.00 | 57 | 1021.4 |
| 20260505005524 | 10 | 197 | 3.2 | 6.4 | 0.00 | 0.00 | 0.00 | 57 | 1021.4 |
| 20260505003622 | 10 | 189 | 1.6 | 4.8 | 0.00 | 0.00 | 0.00 | 56 | 1021.0 |
| 20260505002625 | 10 | 194 | 4.8 | 9.7 | 0.00 | 0.00 | 0.00 | 56 | 1020.8 |
| 20260505001624 | 10 | 187 | 6.4 | 12.9 | 0.00 | 0.00 | 0.00 | 55 | 1020.7 |
| 20260505000624 | 10 | 196 | 6.4 | 16.1 | 0.00 | 0.00 | 0.00 | 55 | 1020.4 |
| 20260504235624 | 10 | 192 | 3.2 | 6.4 | 0.00 | 0.00 | 0.00 | 55 | 1020.5 |
| 20260504234623 | 10 | 194 | 4.8 | 11.3 | 0.00 | 0.00 | 0.00 | 54 | 1020.3 |
| 20260504233623 | 11 | 190 | 6.4 | 14.5 | 0.00 | 0.00 | 0.00 | 55 | 1020.4 |
| 20260504232623 | 11 | 190 | 3.2 | 6.4 | 0.00 | 0.00 | 0.00 | 55 | 1020.4 |
| 20260504231722 | 11 | 196 | 8.0 | 16.1 | 0.00 | 0.00 | 0.00 | 53 | 1020.3 |
| 20260504230740 | 11 | 193 | 4.8 | 17.7 | 0.00 | 0.00 | 0.00 | 53 | 1020.3 |
| 20260504225825 | 11 | 194 | 4.8 | 9.7 | 0.00 | 0.00 | 0.00 | 54 | 1020.1 |
| 20260504224842 | 12 | 192 | 4.8 | 9.7 | 0.00 | 0.00 | 0.00 | 54 | 1020.1 |
| 20260504223924 | 12 | 194 | 3.2 | 6.4 | 0.00 | 0.00 | 0.00 | 54 | 1020.2 |
| 20260504222922 | 12 | 183 | 8.0 | 16.1 | 0.00 | 0.00 | 0.00 | 54 | 1020.0 |
| 20260504221022 | 13 | 191 | 4.8 | 11.3 | 0.00 | 0.00 | 0.00 | 53 | 1020.0 |
| 20260504220023 | 14 | 195 | 6.4 | 11.3 | 0.00 | 0.00 | 0.00 | 53 | 1020.0 |
| 20260504215023 | 14 | 182 | 3.2 | 8.0 | 0.00 | 0.00 | 0.00 | 54 | 1020.0 |
| 20260504214024 | 14 | 188 | 6.4 | 22.5 | 0.00 | 0.00 | 0.00 | 54 | 1020.1 |
| 20260504212140 | 14 | 191 | 4.8 | 12.9 | 0.00 | 0.00 | 0.00 | 53 | 1020.0 |
| 20260504211222 | 15 | 189 | 4.8 | 11.3 | 0.00 | 0.00 | 0.00 | 54 | 1020.2 |
| 20260504210224 | 15 | 191 | 1.6 | 6.4 | 0.00 | 0.00 | 0.00 | 53 | 1020.1 |
| 20260504204323 | 15 | 185 | 8.0 | 17.7 | 0.00 | 0.00 | 0.00 | 54 | 1020.0 |
| 20260504203323 | 15 | 193 | 8.0 | 12.9 | 0.00 | 0.00 | 0.00 | 55 | 1019.9 |
| 20260504202340 | 15 | 186 | 4.8 | 8.0 | 0.00 | 0.00 | 0.00 | 55 | 1019.9 |
| 20260504201423 | 16 | 194 | 8.0 | 25.7 | 0.00 | 0.00 | 0.00 | 54 | 1019.8 |
| 20260504200439 | 16 | 193 | 4.8 | 20.9 | 0.00 | 0.00 | 0.00 | 54 | 1019.9 |
| 20260504195423 | 16 | 189 | 8.0 | 20.9 | 0.00 | 0.00 | 0.00 | 54 | 1019.9 |
| 20260504194424 | 16 | 185 | 4.8 | 14.5 | 0.00 | 0.00 | 0.00 | 56 | 1020.0 |
| 20260504193523 | 17 | 197 | 4.8 | 8.0 | 0.00 | 0.00 | 0.00 | 56 | 1019.9 |
| 20260504192541 | 16 | 187 | 3.2 | 9.7 | 0.00 | 0.00 | 0.00 | 56 | 1020.0 |
| 20260504191624 | 16 | 191 | 9.7 | 17.7 | 0.00 | 0.00 | 0.00 | 56 | 1020.0 |
| 20260504185624 | 16 | 187 | 8.0 | 12.9 | 0.00 | 0.00 | 0.00 | 56 | 1020.1 |
| 20260504184624 | 16 | 188 | 8.0 | 20.9 | 0.00 | 0.00 | 0.00 | 57 | 1020.2 |
| 20260504183623 | 16 | 187 | 1.6 | 9.7 | 0.00 | 0.00 | 0.00 | 56 | 1020.2 |
| 20260504182642 | 16 | 181 | 9.7 | 16.1 | 0.00 | 0.00 | 0.00 | 57 | 1020.1 |
| 20260504181722 | 16 | 183 | 8.0 | 22.5 | 0.00 | 0.00 | 0.00 | 57 | 1020.2 |
| 20260504180722 | 16 | 191 | 8.0 | 16.1 | 0.00 | 0.00 | 0.00 | 57 | 1020.3 |
| 20260504175724 | 15 | 184 | 4.8 | 16.1 | 0.00 | 0.00 | 0.00 | 56 | 1020.4 |
| 20260504173822 | 15 | 184 | 8.0 | 17.7 | 0.00 | 0.00 | 0.00 | 57 | 1020.5 |
| 20260504172823 | 16 | 188 | 9.7 | 22.5 | 0.00 | 0.00 | 0.00 | 58 | 1020.4 |
| 20260504171824 | 15 | 182 | 6.4 | 14.5 | 0.00 | 0.00 | 0.00 | 58 | 1020.6 |
| 20260504170822 | 15 | 182 | 9.7 | 17.7 | 0.00 | 0.00 | 0.00 | 57 | 1020.7 |
| 20260504151025 | 16 | 190 | 4.8 | 11.3 | 0.00 | 0.00 | 0.00 | 61 | 1021.1 |
| 20260504141142 | 15 | 181 | 3.2 | 8.0 | 0.00 | 0.00 | 0.00 | 63 | 1021.4 |
| 20260504140222 | 15 | 180 | 4.8 | 11.3 | 0.00 | 0.00 | 0.00 | 62 | 1021.5 |
| 20260504130225 | 14 | 186 | 0.0 | 4.8 | 0.00 | 0.00 | 0.00 | 64 | 1021.4 |
| 20260504120124 | 13 | 180 | 1.6 | 6.4 | 0.00 | 0.00 | 0.00 | 64 | 1021.6 |
| 20260504110323 | 11 | 174 | 0.0 | 6.4 | 0.00 | 0.00 | 0.00 | 61 | 1021.6 |